Погода в Эль-Кунейтре

Сирия     33°07′38″N   35°49′41″E
темп.,
°C
ветер,
м/с
пор.,
м/с
влажн.,
%
обл.,
%
осадки,
мм/ч
давл.,
гПа
погр.,
м
29 июня, ср
ср2900:00+18ссз22720 0.0 100924
03:00+17с22670 0.0 100916
06:00+17с11670 0.0 100911
09:00+23зюз21480 0.0 1009643
12:00+27з53380 0.0 10081231
15:00+26з54390 0.0 10081006
18:00+23з45540 0.0 1008499
21:00+18сз24770 0.0 1009138
30 июня, чт
чт3000:00+18ссз22790 0.0 100934
03:00+16ссз22770 0.0 100914
06:00+17с22660 0.0 100814
09:00+23з31510 0.0 1009550
12:00+26з54390 0.0 10091171
15:00+26з65370 0.0 1008926
18:00+24зсз55430 0.0 1008548
21:00+18сз23700 0.0 100952
1 июля, пт
пт100:00+18ссз33720 0.0 100952
03:00+17ссз22580 0.0 100825
06:00+17ссз22530 0.0 100825
09:00+22з34420 0.0 1008467
12:00+26з65330 0.0 10081042
15:00+26зсз77330 0.0 1007875
18:00+23зсз66500 0.0 1007593
21:00+18сз34750 0.0 1009136
2 июля, сб
сб200:00+17ссз34790 0.0 1009106
03:00+17ссз33720 0.0 100849
06:00+17ссз33650 0.0 100844
09:00+23зсз45450 0.0 1008575
12:00+27зсз66390 0.0 10071257
15:00+27зсз77460 0.0 10061045
18:00+24зсз66590 0.0 1007651
21:00+19сз34870 0.0 1008172
3 июля, вс
вс300:00+19ссз23809 0.0 100877
03:00+18ссз23790 0.0 100747
06:00+18ссз23750 0.0 100744
09:00+23з33500 0.0 1007567
12:00+27з65410 0.0 10071249
15:00+27зсз76480 0.0 1006990
18:00+25зсз56550 0.0 1006663
21:00+20сз34730 0.0 1007150